This demonstration page uses our WeatherBlox Daily Observations layout. Learn more.

41.86663, -103.66717

Hourly Observations for December 3, 2019

Temp ( °F °C ) Dew Point ( °F °C ) Humidity (%) Winds ( mph kmh ) Pressure ( in mb ) Visibility ( mi km ) Precip ( " mm )
12:53 am 00:53 Clear 41 5 30 -1.1 65 65 WNW 20 31 29.94 1014 10 16.0934 0 0
1:53 am 01:53 Clear 40 4.4 30 -1.1 68 68 W 17 28 29.95 1014 10 16.0934 0 0
2:53 am 02:53 Clear 39 3.9 30 -1.1 70 70 W 14 22 29.97 1015 10 16.0934 0 0
3:53 am 03:53 Clear 38 3.3 29 -1.7 70 70 NW 8 13 29.97 1015 10 16.0934 0 0
4:53 am 04:53 Clear 31 -0.6 27 -2.8 85 85 NNW 6 9 30.02 1017 10 16.0934 0 0
5:53 am 05:53 Clear 29 -1.7 25 -3.9 85 85 WSW 9 15 30.03 1017 10 16.0934 0 0
6:53 am 06:53 Clear 26 -3.3 24 -4.4 92 92 NNW 6 9 30.04 1017 10 16.0934 0 0
7:53 am 07:53 Sunny 33 0.6 26 -3.3 75 75 NW 10 17 30.04 1017 10 16.0934 0 0
8:53 am 08:53 Sunny 36 2.2 29 -1.7 76 76 NW 10 17 30.07 1018 10 16.0934 0 0
9:53 am 09:53 Sunny 39 3.9 30 -1.1 70 70 WNW 10 17 30.08 1019 10 16.0934 0 0
10:53 am 10:53 Sunny 42 5.6 30 -1.1 62 62 WNW 10 17 30.05 1018 10 16.0934 0 0
11:53 am 11:53 Sunny 44 6.7 32 0 63 63 WNW 7 11 30.04 1017 10 16.0934 0 0
12:53 pm 12:53 Sunny 45 7.2 32 0 61 61 WNW 9 15 30.02 1017 10 16.0934 0 0
1:53 pm 13:53 Sunny 46 7.8 32 0 58 58 WNW 13 20 30.01 1016 10 16.0934 0 0
2:53 pm 14:53 Sunny 45 7.2 32 0 61 61 WNW 13 20 30.02 1017 10 16.0934 0 0
3:53 pm 15:53 Sunny 43 6.1 31 -0.6 63 63 WNW 10 17 30.03 1017 10 16.0934 0 0
4:53 pm 16:53 Clear 37 2.8 31 -0.6 79 79 W 9 15 30.07 1018 10 16.0934 0 0
5:53 pm 17:53 Clear 40 4.4 31 -0.6 70 70 W 15 24 30.06 1018 10 16.0934 0 0
6:53 pm 18:53 Clear 39 3.9 30 -1.1 70 70 W 14 22 30.09 1019 10 16.0934 0 0
7:53 pm 19:53 Clear 37 2.8 29 -1.7 73 73 W 13 20 30.07 1018 10 16.0934 0 0
8:53 pm 20:53 Clear 35 1.7 28 -2.2 76 76 W 10 17 30.06 1018 10 16.0934 0 0
9:53 pm 21:53 Clear 36 2.2 29 -1.7 76 76 WNW 12 19 30.07 1018 10 16.0934 0 0
10:53 pm 22:53 Clear 37 2.8 29 -1.7 73 73 W 12 19 30.06 1018 10 16.0934 0 0
11:53 pm 23:53 Clear 37 2.8 28 -2.2 70 70 WNW 13 20 30.05 1018 10 16.0934 0 0

Powered by AerisWeather